| time (UTC) | temp F | wind direction | speed MPH | gust MPH | rain 1hr in | rain 24hr in | rain mn in | humidity % | barometer mb |
| 20260510201004 | 84 | 264 | 3.0 | 10.0 | 0.00 | 0.02 | 0.00 | 54 | 1016.6 |
| 20260510200004 | 85 | 267 | 5.0 | 8.0 | 0.00 | 0.02 | 0.00 | 52 | 1016.6 |
| 20260510195003 | 85 | 286 | 5.0 | 10.0 | 0.00 | 0.02 | 0.00 | 55 | 1016.5 |
| 20260510194003 | 85 | 278 | 5.0 | 9.0 | 0.00 | 0.02 | 0.00 | 55 | 1016.6 |
| 20260510193004 | 84 | 248 | 3.0 | 9.0 | 0.00 | 0.03 | 0.00 | 56 | 1016.8 |
| 20260510192004 | 83 | 258 | 5.0 | 10.0 | 0.00 | 0.04 | 0.00 | 58 | 1017.1 |
| 20260510191003 | 83 | 284 | 2.0 | 5.0 | 0.00 | 0.06 | 0.00 | 61 | 1017.1 |
| 20260510190004 | 82 | 288 | 1.0 | 8.0 | 0.00 | 0.07 | 0.00 | 61 | 1017.1 |
| 20260510184004 | 84 | 265 | 2.0 | 8.0 | 0.00 | 0.07 | 0.00 | 59 | 1017.4 |
| 20260510183004 | 83 | 265 | 3.0 | 8.0 | 0.00 | 0.07 | 0.00 | 61 | 1017.4 |
| 20260510182004 | 82 | 279 | 2.0 | 6.0 | 0.00 | 0.07 | 0.00 | 60 | 1017.5 |
| 20260510181004 | 81 | 318 | 2.0 | 3.0 | 0.00 | 0.08 | 0.00 | 62 | 1017.6 |
| 20260510180003 | 80 | 249 | 2.0 | 7.0 | 0.00 | 0.08 | 0.00 | 64 | 1017.5 |
| 20260510175003 | 82 | 310 | 5.0 | 8.0 | 0.00 | 0.09 | 0.00 | 61 | 1017.7 |
| 20260510174004 | 81 | 310 | 2.0 | 7.0 | 0.00 | 0.10 | 0.00 | 63 | 1017.7 |
| 20260510173005 | 80 | 288 | 3.0 | 8.0 | 0.00 | 0.10 | 0.00 | 63 | 1017.9 |
| 20260510165004 | 79 | 356 | 1.0 | 3.0 | 0.00 | 0.12 | 0.00 | 65 | 1018.4 |
| 20260510164004 | 79 | 268 | 2.0 | 3.0 | 0.00 | 0.13 | 0.00 | 68 | 1018.5 |
| 20260510163004 | 78 | 164 | 1.0 | 3.0 | 0.00 | 0.14 | 0.00 | 69 | 1018.4 |
| 20260510162004 | 78 | 208 | 1.0 | 7.0 | 0.00 | 0.14 | 0.00 | 68 | 1018.6 |
| 20260510160004 | 79 | 159 | 1.0 | 3.0 | 0.00 | 0.14 | 0.00 | 68 | 1018.5 |
| 20260510155004 | 77 | 75 | 2.0 | 6.0 | 0.00 | 0.15 | 0.00 | 69 | 1018.5 |
| 20260510154004 | 76 | 322 | 1.0 | 5.0 | 0.00 | 0.15 | 0.00 | 70 | 1018.6 |
| 20260510153004 | 76 | 320 | 1.0 | 3.0 | 0.00 | 0.15 | 0.00 | 72 | 1018.6 |
| 20260510152004 | 74 | 58 | 2.0 | 5.0 | 0.00 | 0.16 | 0.00 | 74 | 1018.6 |
| 20260510151004 | 74 | 344 | 2.0 | 7.0 | 0.00 | 0.17 | 0.00 | 75 | 1018.6 |
| 20260510150004 | 74 | 336 | 2.0 | 5.0 | 0.00 | 0.17 | 0.00 | 76 | 1018.5 |
| 20260510145004 | 73 | 343 | 1.0 | 3.0 | 0.00 | 0.17 | 0.00 | 79 | 1018.4 |
| 20260510144004 | 73 | 294 | 0.0 | 3.0 | 0.00 | 0.18 | 0.00 | 79 | 1018.5 |
| 20260510143004 | 73 | 323 | 1.0 | 3.0 | 0.00 | 0.21 | 0.00 | 79 | 1018.3 |
| 20260510142004 | 72 | 347 | 0.0 | 3.0 | 0.00 | 0.30 | 0.00 | 81 | 1018.3 |
| 20260510141004 | 71 | 24 | 1.0 | 3.0 | 0.00 | 0.37 | 0.00 | 83 | 1018.3 |
| 20260510140004 | 70 | 12 | 0.0 | 2.0 | 0.00 | 0.37 | 0.00 | 85 | 1018.2 |
| 20260510135004 | 70 | 274 | 0.0 | 2.0 | 0.00 | 0.37 | 0.00 | 89 | 1018.3 |
| 20260510134004 | 69 | 255 | 1.0 | 2.0 | 0.00 | 0.38 | 0.00 | 91 | 1018.2 |
| 20260510133004 | 68 | 213 | 1.0 | 2.0 | 0.00 | 0.38 | 0.00 | 92 | 1018.3 |
| 20260510132004 | 68 | 238 | 0.0 | 2.0 | 0.00 | 0.38 | 0.00 | 92 | 1018.3 |
| 20260510131005 | 68 | 308 | 1.0 | 3.0 | 0.00 | 0.39 | 0.00 | 92 | 1018.3 |
| 20260510130004 | 67 | 283 | 1.0 | 3.0 | 0.00 | 0.39 | 0.00 | 92 | 1018.3 |
| 20260510125004 | 67 | 254 | 1.0 | 3.0 | 0.00 | 0.39 | 0.00 | 92 | 1018.2 |
| 20260510124004 | 67 | 290 | 1.0 | 3.0 | 0.00 | 0.39 | 0.00 | 92 | 1018.2 |
| 20260510123004 | 67 | 286 | 1.0 | 2.0 | 0.00 | 0.39 | 0.00 | 92 | 1017.9 |
| 20260510122004 | 67 | 203 | 1.0 | 2.0 | 0.00 | 0.39 | 0.00 | 92 | 1017.8 |
| 20260510121004 | 66 | 203 | 0.0 | 1.0 | 0.00 | 0.39 | 0.00 | 92 | 1017.6 |
| 20260510120004 | 66 | 203 | 0.0 | 0.0 | 0.00 | 0.39 | 0.00 | 92 | 1017.7 |
| 20260510113005 | 65 | 203 | 0.0 | 0.0 | 0.00 | 0.39 | 0.00 | 92 | 1017.1 |
| 20260510112004 | 65 | 203 | 0.0 | 1.0 | 0.00 | 0.39 | 0.00 | 92 | 1017.0 |
| 20260510111004 | 65 | 203 | 0.0 | 1.0 | 0.00 | 0.39 | 0.00 | 92 | 1017.0 |
| 20260510110004 | 65 | 203 | 0.0 | 1.0 | 0.00 | 0.39 | 0.00 | 92 | 1016.7 |
| 20260510105005 | 65 | 203 | 1.0 | 3.0 | 0.00 | 0.39 | 0.00 | 92 | 1016.7 |
| 20260510104004 | 65 | 181 | 1.0 | 3.0 | 0.00 | 0.39 | 0.00 | 92 | 1016.7 |
| 20260510103004 | 65 | 130 | 1.0 | 3.0 | 0.00 | 0.39 | 0.00 | 92 | 1016.6 |
| 20260510102004 | 65 | 167 | 0.0 | 3.0 | 0.00 | 0.39 | 0.00 | 92 | 1016.4 |
| 20260510101004 | 65 | 157 | 1.0 | 2.0 | 0.00 | 0.39 | 0.00 | 92 | 1016.5 |
| 20260510100004 | 65 | 138 | 0.0 | 1.0 | 0.00 | 0.39 | 0.00 | 92 | 1016.4 |
| 20260510095004 | 65 | 157 | 0.0 | 2.0 | 0.00 | 0.39 | 0.00 | 92 | 1016.1 |
| 20260510094004 | 65 | 157 | 1.0 | 2.0 | 0.00 | 0.39 | 0.00 | 92 | 1016.1 |
| 20260510093004 | 65 | 157 | 1.0 | 2.0 | 0.00 | 0.39 | 0.00 | 92 | 1016.1 |
| 20260510090004 | 65 | 139 | 1.0 | 2.0 | 0.00 | 0.39 | 0.00 | 92 | 1015.6 |
| 20260510085004 | 65 | 151 | 0.0 | 1.0 | 0.00 | 0.39 | 0.00 | 92 | 1015.7 |
| 20260510084004 | 65 | 151 | 0.0 | 2.0 | 0.00 | 0.39 | 0.00 | 92 | 1015.6 |
| 20260510082004 | 65 | 99 | 1.0 | 3.0 | 0.00 | 0.39 | 0.00 | 92 | 1015.2 |
| 20260510081005 | 65 | 114 | 0.0 | 1.0 | 0.00 | 0.39 | 0.00 | 92 | 1015.6 |
| 20260510080005 | 65 | 114 | 1.0 | 2.0 | 0.00 | 0.39 | 0.00 | 92 | 1015.3 |
| 20260510075004 | 65 | 182 | 1.0 | 3.0 | 0.00 | 0.39 | 0.00 | 92 | 1015.4 |
| 20260510073004 | 65 | 123 | 2.0 | 3.0 | 0.00 | 0.39 | 0.00 | 92 | 1015.2 |
| 20260510072003 | 65 | 127 | 1.0 | 3.0 | 0.00 | 0.39 | 0.00 | 92 | 1015.1 |
| 20260510071003 | 65 | 351 | 0.0 | 1.0 | 0.00 | 0.39 | 0.00 | 92 | 1015.3 |
| 20260510070004 | 65 | 351 | 0.0 | 1.0 | 0.00 | 0.39 | 0.00 | 92 | 1015.2 |
| 20260510065003 | 65 | 326 | 0.0 | 1.0 | 0.00 | 0.39 | 0.00 | 92 | 1015.2 |
| 20260510064003 | 65 | 242 | 0.0 | 2.0 | 0.00 | 0.39 | 0.00 | 92 | 1015.3 |
| 20260510063004 | 65 | 242 | 1.0 | 2.0 | 0.00 | 0.39 | 0.00 | 92 | 1015.7 |
| 20260510062004 | 65 | 220 | 0.0 | 2.0 | 0.00 | 0.39 | 0.00 | 92 | 1015.8 |
| 20260510061004 | 65 | 220 | 0.0 | 2.0 | 0.00 | 0.39 | 0.00 | 92 | 1015.7 |
| 20260510060004 | 65 | 220 | 1.0 | 3.0 | 0.00 | 0.39 | 0.00 | 92 | 1015.4 |
| 20260510055003 | 65 | 355 | 0.0 | 2.0 | 0.00 | 0.39 | 0.00 | 92 | 1014.6 |
| 20260510054004 | 65 | 355 | 1.0 | 3.0 | 0.00 | 0.39 | 0.00 | 92 | 1014.3 |
| 20260510053004 | 65 | 345 | 2.0 | 5.0 | 0.00 | 0.39 | 0.00 | 92 | 1014.5 |
| 20260510051004 | 65 | 330 | 0.0 | 1.0 | 0.00 | 0.39 | 0.00 | 92 | 1015.6 |
| 20260510050004 | 65 | 330 | 0.0 | 1.0 | 0.00 | 0.39 | 0.00 | 92 | 1015.5 |
| 20260510045004 | 65 | 330 | 0.0 | 1.0 | 0.00 | 0.39 | 0.00 | 92 | 1015.3 |
| 20260510044004 | 65 | 330 | 0.0 | 2.0 | 0.00 | 0.39 | 0.00 | 92 | 1015.4 |
| 20260510043004 | 65 | 263 | 0.0 | 1.0 | 0.00 | 0.39 | 0.00 | 92 | 1014.8 |
| 20260510042005 | 65 | 263 | 0.0 | 1.0 | 0.00 | 0.39 | 0.00 | 92 | 1015.0 |
| 20260510041004 | 65 | 263 | 0.0 | 2.0 | 0.00 | 0.39 | 0.00 | 92 | 1015.5 |
| 20260510040004 | 65 | 292 | 0.0 | 2.0 | 0.00 | 0.39 | 0.00 | 92 | 1015.8 |
| 20260510035004 | 65 | 292 | 1.0 | 2.0 | 0.00 | 0.39 | 0.39 | 92 | 1016.0 |
| 20260510032003 | 65 | 268 | 1.0 | 3.0 | 0.00 | 0.39 | 0.39 | 92 | 1016.2 |
| 20260510031004 | 65 | 268 | 0.0 | 3.0 | 0.00 | 0.39 | 0.39 | 92 | 1016.2 |
| 20260510030004 | 65 | 324 | 1.0 | 2.0 | 0.00 | 0.39 | 0.39 | 92 | 1015.9 |
| 20260510025003 | 65 | 324 | 0.0 | 0.0 | 0.00 | 0.39 | 0.39 | 92 | 1015.8 |
| 20260510023004 | 65 | 324 | 0.0 | 1.0 | 0.00 | 0.40 | 0.39 | 92 | 1015.8 |
| 20260510022004 | 65 | 324 | 0.0 | 0.0 | 0.00 | 0.40 | 0.39 | 92 | 1015.6 |
| 20260510021004 | 65 | 324 | 0.0 | 0.0 | 0.00 | 0.40 | 0.39 | 92 | 1015.4 |
| 20260510020004 | 65 | 324 | 0.0 | 2.0 | 0.00 | 0.40 | 0.39 | 92 | 1015.3 |
| 20260510015005 | 65 | 243 | 0.0 | 0.0 | 0.00 | 0.40 | 0.39 | 92 | 1015.2 |
| 20260510014004 | 65 | 238 | 0.0 | 1.0 | 0.00 | 0.40 | 0.39 | 92 | 1014.9 |
| 20260510012004 | 66 | 238 | 0.0 | 2.0 | 0.00 | 0.40 | 0.39 | 92 | 1014.7 |
| 20260510011004 | 66 | 238 | 0.0 | 2.0 | 0.00 | 0.40 | 0.39 | 92 | 1014.8 |
| 20260510010004 | 66 | 238 | 0.0 | 2.0 | 0.00 | 0.40 | 0.39 | 92 | 1014.7 |
| 20260510005003 | 66 | 238 | 0.0 | 1.0 | 0.00 | 0.40 | 0.39 | 92 | 1014.6 |
| 20260510004003 | 66 | 238 | 1.0 | 1.0 | 0.00 | 0.41 | 0.39 | 92 | 1014.7 |
| 20260510002004 | 66 | 301 | 0.0 | 2.0 | 0.00 | 0.41 | 0.39 | 92 | 1014.5 |
| 20260510001003 | 66 | 290 | 1.0 | 3.0 | 0.00 | 0.41 | 0.39 | 92 | 1014.6 |
| 20260509235003 | 66 | 270 | 0.0 | 2.0 | 0.00 | 0.43 | 0.39 | 92 | 1014.0 |
| 20260509234003 | 66 | 293 | 1.0 | 3.0 | 0.00 | 0.47 | 0.39 | 92 | 1014.0 |
| 20260509233003 | 66 | 176 | 1.0 | 6.0 | 0.00 | 0.50 | 0.39 | 92 | 1013.5 |
| 20260509232004 | 66 | 149 | 3.0 | 6.0 | 0.00 | 0.51 | 0.39 | 92 | 1013.6 |
| 20260509231004 | 66 | 157 | 0.0 | 2.0 | 0.00 | 0.52 | 0.39 | 92 | 1013.8 |
| 20260509230004 | 66 | 302 | 0.0 | 1.0 | 0.00 | 0.54 | 0.39 | 92 | 1014.1 |
| 20260509225004 | 66 | 302 | 0.0 | 1.0 | 0.00 | 0.55 | 0.39 | 92 | 1014.4 |
| 20260509224004 | 66 | 302 | 0.0 | 2.0 | 0.00 | 0.56 | 0.39 | 92 | 1014.2 |
| 20260509222004 | 66 | 304 | 1.0 | 3.0 | 0.00 | 0.56 | 0.39 | 92 | 1013.9 |
| 20260509220004 | 66 | 305 | 2.0 | 3.0 | 0.00 | 0.56 | 0.39 | 92 | 1013.8 |
| 20260509214003 | 66 | 281 | 2.0 | 6.0 | 0.01 | 0.56 | 0.39 | 92 | 1013.5 |
| 20260509213004 | 66 | 27 | 1.0 | 3.0 | 0.01 | 0.56 | 0.39 | 92 | 1013.1 |
| 20260509210004 | 65 | 318 | 0.0 | 3.0 | 0.02 | 0.56 | 0.39 | 92 | 1012.9 |
| 20260509204004 | 65 | 33 | 0.0 | 3.0 | 0.01 | 0.55 | 0.38 | 92 | 1013.1 |
| 20260509203004 | 65 | 20 | 2.0 | 3.0 | 0.01 | 0.55 | 0.38 | 92 | 1013.4 |
| 20260509202004 | 65 | 314 | 2.0 | 3.0 | 0.02 | 0.55 | 0.38 | 92 | 1013.9 |